This is the latest recevied weather packets stored in our database for station/object 9W2XPF-13. If no packets are shown the sender has not sent any weather packets the latest 10 day(s).
| Time | Temp. | Humidity | Pressure | Rain* | Wind** | Luminosity | Snow |
|---|---|---|---|---|---|---|---|
| 1777262522 | 32.22° C | 73% | 1008.7 hPa | 0 mm | - | - | - |
| 1777262402 | 32.22° C | 71% | 1008.9 hPa | 0 mm | - | - | - |
| 1777262282 | 32.22° C | 71% | 1009 hPa | 0 mm | - | - | - |
| 1777262162 | 32.22° C | 71% | 1008.9 hPa | 0 mm | - | - | - |
| 1777262042 | 32.22° C | 71% | 1009 hPa | 0 mm | - | - | - |
| 1777261922 | 32.22° C | 71% | 1009.3 hPa | 0 mm | - | - | - |
| 1777261802 | 31.67° C | 72% | 1009.1 hPa | 0 mm | - | - | - |
| 1777261682 | 31.67° C | 73% | 1009.1 hPa | 0 mm | - | - | - |
| 1777261562 | 31.67° C | 73% | 1009.2 hPa | 0 mm | - | - | - |
| 1777261442 | 31.67° C | 70% | 1009 hPa | 0 mm | - | - | - |
| 1777261322 | 31.67° C | 72% | 1009.1 hPa | 0 mm | - | - | - |
| 1777261202 | 31.67° C | 75% | 1009.1 hPa | 0 mm | - | - | - |
| 1777261082 | 31.11° C | 74% | 1009.2 hPa | 0 mm | - | - | - |
| 1777260962 | 31.11° C | 76% | 1009.1 hPa | 0 mm | - | - | - |
| 1777260842 | 30.56° C | 76% | 1009.1 hPa | 0 mm | - | - | - |
| 1777260722 | 30.56° C | 77% | 1009 hPa | 0 mm | - | - | - |
| 1777260602 | 30° C | 78% | 1009.1 hPa | 0 mm | - | - | - |
| 1777260482 | 30° C | 79% | 1009 hPa | 0 mm | - | - | - |
| 1777260362 | 29.44° C | 81% | 1009.2 hPa | 0 mm | - | - | - |
| 1777260242 | 29.44° C | 81% | 1009.2 hPa | 0 mm | - | - | - |
| 1777260122 | 28.89° C | 83% | 1009.3 hPa | 0 mm | - | - | - |
| 1777260002 | 28.33° C | 84% | 1009.2 hPa | 0 mm | - | - | - |
| 1777259882 | 28.33° C | 85% | 1009.4 hPa | 0 mm | - | - | - |
| 1777259762 | 28.33° C | 86% | 1009.4 hPa | 0 mm | - | - | - |
| 1777259642 | 28.33° C | 86% | 1009.5 hPa | 0 mm | - | - | - |
* Rain latest hour (hover to see other rain measurements)
** Current wind speed in m/s (hover to see current wind gust speed)